IK7IZV Weather Reports


Display with metric or nautical units.
time (UTC)temp
F
wind
direction
speed
MPH
gust
MPH
rain 1hr
in
rain 24hr
in
rain mn
in
humidity
%
barometer
mb
20260503211524 59 211 2.0 3.0 0.00 0.00 0.00 66 1019.8
20260503210023 59 212 2.0 3.0 0.00 0.00 0.00 66 1019.7
20260503204522 60 283 1.0 3.0 0.00 0.00 0.00 63 1019.7
20260503203029 62 279 0.0 3.0 0.00 0.00 0.00 59 1019.6
20260503201521 63 213 0.0 1.0 0.00 0.00 0.00 57 1019.6
20260503200020 65 302 0.0 2.0 0.00 0.00 0.00 55 1019.5
20260503194522 66 60 0.0 2.0 0.00 0.00 0.00 53 1019.3
20260503193018 66 60 0.0 1.0 0.00 0.00 0.00 51 1019.2
20260503191521 66 59 0.0 0.0 0.00 0.00 0.00 50 1019.1
20260503190017 66 60 1.0 2.0 0.00 0.00 0.00 49 1019.0
20260503184517 66 60 0.0 1.0 0.00 0.00 0.00 48 1018.9
20260503183021 67 60 1.0 3.0 0.00 0.00 0.00 47 1018.8
20260503181516 67 335 0.0 1.0 0.00 0.00 0.00 46 1018.7
20260503180019 68 335 1.0 3.0 0.00 0.00 0.00 44 1018.7
20260503174515 68 359 2.0 4.0 0.00 0.00 0.00 43 1018.7
20260503173017 69 9 0.0 3.0 0.00 0.00 0.00 42 1018.6
20260503171514 69 94 0.0 4.0 0.00 0.00 0.00 45 1018.7
20260503081535 66 336 10.0 17.0 0.00 0.00 0.00 49 1020.4
20260503071524 64 4 16.0 22.0 0.00 0.00 0.00 48 1020.5
20260503054514 62 70 3.0 11.0 0.00 0.00 0.00 47 1020.5
20260503053007 61 341 6.0 10.0 0.00 0.00 0.00 48 1020.3
20260503051503 59 324 3.0 6.0 0.00 0.00 0.00 50 1020.3
20260503050100 58 323 1.0 6.0 0.00 0.00 0.00 52 1020.3
20260503044608 57 312 2.0 4.0 0.00 0.00 0.00 53 1020.2
20260503043102 57 326 2.0 4.0 0.00 0.00 0.00 53 1020.2
20260503041557 57 327 2.0 6.0 0.00 0.00 0.00 53 1020.3
20260503040100 57 287 3.0 9.0 0.00 0.00 0.00 52 1020.3
20260503034556 57 302 2.0 6.0 0.00 0.00 0.00 52 1020.2
20260503033123 57 288 1.0 4.0 0.00 0.00 0.00 52 1020.3
20260503031559 57 274 2.0 9.0 0.00 0.00 0.00 51 1020.3
20260503024613 57 2 6.0 9.0 0.00 0.00 0.00 51 1020.4
20260503023049 57 336 5.0 8.0 0.00 0.00 0.00 52 1020.4
20260503021553 57 345 4.0 8.0 0.00 0.00 0.00 52 1020.4
20260503020049 57 2 3.0 8.0 0.00 0.00 0.00 53 1020.4
20260503014546 56 298 4.0 7.0 0.00 0.00 0.00 54 1020.4
20260503013045 56 313 3.0 8.0 0.00 0.00 0.00 54 1020.6
20260503011546 56 317 4.0 7.0 0.00 0.00 0.00 54 1020.7
20260503010042 56 291 4.0 8.0 0.00 0.00 0.00 54 1020.8
20260503004544 56 303 2.0 6.0 0.00 0.00 0.00 55 1020.9
20260503003040 56 295 3.0 9.0 0.00 0.00 0.00 55 1021.0
20260503001540 56 327 3.0 7.0 0.00 0.00 0.00 55 1021.2
20260503000036 56 292 4.0 7.0 0.00 0.00 0.00 54 1021.3
20260502234534 57 309 2.0 6.0 0.00 0.00 0.00 53 1021.5
20260502233041 57 276 3.0 7.0 0.00 0.00 0.00 53 1021.8
20260502231545 57 277 4.0 8.0 0.00 0.00 0.00 53 1021.9
20260502230028 57 283 4.0 8.0 0.00 0.00 0.00 55 1022.1
20260502224525 56 286 5.0 9.0 0.00 0.00 0.00 57 1022.2
20260502223025 56 307 4.0 9.0 0.00 0.00 0.00 59 1022.4
20260502221522 56 288 5.0 9.0 0.00 0.00 0.00 61 1022.4
20260502220024 56 263 2.0 7.0 0.00 0.00 0.00 62 1022.5
20260502214517 55 317 2.0 9.0 0.00 0.00 0.00 63 1022.6
20260502213017 55 294 2.0 7.0 0.00 0.00 0.00 64 1022.7